C/2022 L2 ( ATLAS )

Japanese version
Home page
Updated on March 23, 2025

---------------------------------------------------------------------

* Profile

Discovery Date June 10, 2022
Magnitude 18.4 mag
Discoverer Asteroid Terrestrial-Impact Last Alert System (ATLAS) search program

* Pictures

* Orbital Elements

Epoch 2024 Oct. 17.0 TT = JDT 2460600.5
T 2024 Mar. 12.23890 TT                                 Rudenko
q   2.6927452            (2000.0)            P               Q
z  -0.0004311      Peri.  199.91206     -0.86469164     -0.11303964
 +/-0.0000005      Node    39.24041     -0.28753611     +0.91030882
e   1.0011607      Incl.  129.31344     -0.41186328     -0.39819580
From 2835 observations 2022 May 20-2024 Nov. 12, mean residual 0".9.

* Finding Charts

* Magnitudes Graph

        m1 = 10.0 + 5 log d + 5.0 log r  [ ,0]  (             - 2024 Mar. 12)
        m1 =  8.3 + 5 log d + 9.0 log r  [0, ]  (2024 Mar. 12 -             )

---------------------------------------------------------------------

The orbital elements are published on M.P.E.C. 2024-V192.
The charts are made with StellaNavigator Ver.10 (AstroArts).
The magnitudes graphs are made with Comet for Windows.

---------------------------------------------------------------------

Copyright(C) Seiichi Yoshida (comet@aerith.net). All rights reserved.